Regional Weather Roundup
Issued by NWS Northern Indiana

Home | Current Version | Previous Version | Text Only | Print | Product List | Glossary Off
Versions: 1 2 3 4 5 6 7 8 9 10 11 12 13 14 15 16 17 18 19 20 21 22 23 24 25 26 27 28 29 30 31 32 33 34 35 36 37 38 39 40 41 42 43 44 45 46 47 48 49 50

000
ASUS43 KIWX 032300
RWRIWX

KIWX WEATHER ROUNDUP
NATIONAL WEATHER SERVICE NORTHERN INDIANA
600 PM EST TUE MAR 03 2015

NOTE: "FAIR" INDICATES FEW OR NO CLOUDS BELOW 12,000 FEET WITH NO
SIGNIFICANT WEATHER AND/OR OBSTRUCTIONS TO VISIBILITY.

* THESE STATIONS ARE NOT UNDER NWS QUALITY CONTROL. THEY ALSO MAY NOT
  REPORT WEATHER SUCH AS PRECIPITATION OR FOG.

INZ001>027-040000-
NORTHERN INDIANA

CITY           SKY/WX    TMP DP  RH WIND       PRES   REMARKS
GARY*          CLOUDY    37  28  70 W17G35    29.72R
SOUTH BEND     CLOUDY    36  32  85 W23G31    29.71R
ELKHART*       CLOUDY    36  30  80 W20       29.69R
GOSHEN         CLOUDY    36  32  85 W18       29.68R FOG
MONTICELLO*    CLOUDY    36  34  94 W15G21    29.75R
ANGOLA*        CLOUDY    36  28  75 W13       29.63R
FORT WAYNE     CLOUDY    37  35  92 W22       29.69R FOG
PERU/GRISSOM   CLOUDY    36  35  94 W22       29.72R

$$
INZ028>050-040000-
CENTRAL INDIANA

CITY           SKY/WX    TMP DP  RH WIND       PRES   REMARKS
LAFAYETTE      CLOUDY    37  35  92 W13G21    29.75R
KOKOMO*        CLOUDY    37  36  93 W24G30    29.74S
MUNCIE*        LGT RAIN  40  38  93 W15       29.75R FOG
INDIANAPOLIS   LGT RAIN  39  37  92 W18G26    29.76R

$$
MIZ043>046-050>051-056>058-064>065-071>073-077>080-040000-
SOUTHWEST LOWER MICHIGAN

CITY           SKY/WX    TMP DP  RH WIND       PRES   REMARKS
BATTLE CREEK   CLOUDY    35  30  82 W17G29    29.62R WCI  25
BENTON HARBOR  CLOUDY    33  31  92 W15       29.68R WCI  23
COLDWATER*     CLOUDY    35  32  90 W20G29    29.63R WCI  24
HILLSDALE*     CLOUDY    36  36  99 W17G29    29.60R
HOLLAND        CLOUDY    34  30  85 W16G24    29.64R WCI  24
GRAND RAPIDS   CLOUDY    33  28  81 W20G28    29.60R WCI  21
KALAMAZOO      CLOUDY    35  29  78 W20G26    29.65R WCI  24
STURGIS*       CLOUDY    36  34  93 W15G25    29.65R
THREE RIVERS*  CLOUDY    36  31  85 W23G29    29.66R

$$
OHZ001>008-015>018-024>025-040000-
NORTHWEST OHIO

CITY           SKY/WX    TMP DP  RH WIND       PRES   REMARKS
DEFIANCE       CLOUDY    38  35  89 W10G18    29.66R FOG
FINDLAY        LGT RAIN  40  37  89 SW21      29.65R FOG
TOLEDO EXPRESS CLOUDY    36  35  96 SW20G29   29.62R FOG
TOLEDO METCALF CLOUDY    37  34  89 SW20G25   29.63S FOG
LIMA           LGT RAIN  41  32  70 SW23G31   29.69R

$$
AND FOR LAKE MICHIGAN COASTAL AND OPEN LAKE BUOY OBSERVATIONS

STATION/POSITION TEMP    WIND        PRES    VSBY  WAVE
                 AIR SEA DIR/SP/G                  HT/PER
                 (F)     (DEG/KT/KT) (MB)    (MI)  (FT/S)
CALUMET HARBOR    36     250/  6/ 14 1004.4R
MICHIGAN CITY     34     230/ 17/ 21   N/A
SAINT JOSEPH      34     220/ 11/ 20 1005.1R

$$
&&



USA.gov is the U.S. government's official web portal to all federal, state and local government web resources and services.